User: anonymous   Login
Location: Ottawa
(45.4170°N, 75.7000°W)
Time: 15:53:34
(UTC-05:00)
Language:

Aureole 3 Rocket - Orbit

View from above orbital plane
View from above orbital plane
View from above satellite
View from above satellite

Ground track
Ground track

The orbit data is extracted from the following two-line orbital elements,

1 12849U 81094B   14355.35462761  .00002104  00000-0  19881-3 0   693
2 12849 082.4936 143.5691 0909126 336.7020 019.5233 13.48583597619333
Epoch (UTC): 21 December 2014 08:30:39
Eccentricity: 0.0909126
inclination: 82.4936°
perigee height: 399 km
apogee height: 1755 km
right ascension of ascending node: 143.5691°
argument of perigee: 336.7020°
revolutions per day: 13.48583597
mean anomaly at epoch: 19.5233°
orbit number at epoch: 61933

The dashed part of the orbit path shows where the satellite is in the earth's shadow,  

DLR